This is the latest recevied weather packets stored in our database for station/object KQ4UPF. If no packets are shown the sender has not sent any weather packets the latest 10 day(s).
| Time | Temp. | Humidity | Pressure | Rain* | Wind** | Luminosity | Snow |
|---|---|---|---|---|---|---|---|
| 1777737170 | 16.67° C | 47% | 1017.7 hPa | 0 mm | - | 860 W/m² | - |
| 1777736866 | 17.22° C | 43% | 1017.4 hPa | 0 mm | - | 629 W/m² | - |
| 1777736252 | 16.11° C | 46% | 1017.4 hPa | 0 mm | - | 470 W/m² | - |
| 1777735949 | 15.56° C | 44% | 1017.6 hPa | 0 mm | - | 393 W/m² | - |
| 1777735646 | 15.56° C | 47% | 1017.4 hPa | 0 mm | - | 351 W/m² | - |
| 1777735344 | 15.56° C | 46% | 1017.5 hPa | 0 mm | - | 336 W/m² | - |
| 1777735041 | 15.56° C | 47% | 1017.3 hPa | 0 mm | - | 365 W/m² | - |
| 1777734738 | 15.56° C | 48% | 1017.4 hPa | 0 mm | - | 351 W/m² | - |
| 1777734436 | 15.56° C | 47% | 1017.4 hPa | 0 mm | - | 335 W/m² | - |
| 1777734132 | 15.56° C | 53% | 1017.2 hPa | 0 mm | - | 334 W/m² | - |
| 1777733828 | 15.56° C | 50% | 1017.2 hPa | 0 mm | - | 373 W/m² | - |
| 1777733525 | 15° C | 50% | 1017.2 hPa | 0 mm | - | 372 W/m² | - |
| 1777733222 | 15° C | 49% | 1016.9 hPa | 0 mm | - | 376 W/m² | - |
| 1777732919 | 15° C | 47% | 1017 hPa | 0 mm | - | 379 W/m² | - |
| 1777732615 | 15° C | 47% | 1016.9 hPa | 0 mm | - | 330 W/m² | - |
| 1777732313 | 15° C | 51% | 1017 hPa | 0 mm | - | 332 W/m² | - |
| 1777732009 | 14.44° C | 47% | 1016.8 hPa | 0 mm | - | 380 W/m² | - |
| 1777731706 | 14.44° C | 49% | 1016.7 hPa | 0 mm | - | 329 W/m² | - |
| 1777731403 | 15° C | 48% | 1016.7 hPa | 0 mm | - | 331 W/m² | - |
| 1777731101 | 15° C | 50% | 1016.8 hPa | 0 mm | - | 326 W/m² | - |
| 1777730799 | 15.56° C | 55% | 1016.7 hPa | 0 mm | - | 329 W/m² | - |
| 1777730496 | 15.56° C | 50% | 1016.4 hPa | 0 mm | - | 328 W/m² | - |
| 1777730192 | 15° C | 49% | 1016.3 hPa | 0 mm | - | 509 W/m² | - |
| 1777729889 | 15.56° C | 54% | 1016.4 hPa | 0 mm | - | 492 W/m² | - |
| 1777729585 | 15.56° C | 57% | 1016.5 hPa | 0 mm | - | 545 W/m² | - |
* Rain latest hour (hover to see other rain measurements)
** Current wind speed in m/s (hover to see current wind gust speed)